This is the latest recevied weather packets stored in our database for station/object N4AN. If no packets are shown the sender has not sent any weather packets the latest 10 day(s).
| Time | Temp. | Humidity | Pressure | Rain* | Wind** | Luminosity | Snow |
|---|---|---|---|---|---|---|---|
| 1788067418 | 28.33° C | 81% | 1011.1 hPa | 0 mm | - | - | - |
| 1788067117 | 27.78° C | 81% | 1011.1 hPa | 0 mm | - | - | - |
| 1788067004 | 28.33° C | 81% | 1011.2 hPa | 0 mm | - | - | - |
| 1788066817 | 28.33° C | 81% | 1011.2 hPa | 0 mm | - | - | - |
| 1788066697 | 28.33° C | 81% | 1011.2 hPa | 0 mm | - | - | - |
| 1788066517 | 28.33° C | 81% | 1011.2 hPa | 0 mm | - | - | - |
| 1788066216 | 28.33° C | 81% | 1011.2 hPa | 0 mm | - | - | - |
| 1788065916 | 28.33° C | 81% | 1011.3 hPa | 0 mm | - | - | - |
| 1788065614 | 28.89° C | 79% | 1011.2 hPa | 0 mm | - | - | - |
| 1788065314 | 28.89° C | 78% | 1011.2 hPa | 0 mm | - | - | - |
| 1788065013 | 29.44° C | 77% | 1011.2 hPa | 0 mm | - | - | - |
| 1788064712 | 29.44° C | 76% | 1011.1 hPa | 0 mm | - | - | - |
| 1788064413 | 30.56° C | 74% | 1011.2 hPa | 0 mm | - | - | - |
| 1788064112 | 31.11° C | 74% | 1011.3 hPa | 0 mm | - | - | - |
| 1788063984 | 31.11° C | 73% | 1011.4 hPa | 0 mm | - | - | - |
| 1788063812 | 31.11° C | 73% | 1011.4 hPa | 0 mm | - | - | - |
| 1788063645 | 31.11° C | 74% | 1011.4 hPa | 0 mm | - | - | - |
| 1788063511 | 31.11° C | 74% | 1011.4 hPa | 0 mm | - | - | - |
| 1788063345 | 31.11° C | 74% | 1011.6 hPa | 0 mm | - | - | - |
| 1788063211 | 31.11° C | 74% | 1011.6 hPa | 0 mm | - | - | - |
| 1788062911 | 31.11° C | 74% | 1011.7 hPa | 0 mm | - | - | - |
| 1788062757 | 31.11° C | 74% | 1011.7 hPa | 0 mm | - | - | - |
| 1788062610 | 31.11° C | 74% | 1011.7 hPa | 0 mm | - | - | - |
| 1788062310 | 31.11° C | 74% | 1011.8 hPa | 0 mm | - | - | - |
| 1788061710 | 30.56° C | 74% | 1012 hPa | 0 mm | - | - | - |
* Rain latest hour (hover to see other rain measurements)
** Current wind speed in m/s (hover to see current wind gust speed)